Year,Month,Day,Hour,Minute,Value (Times are PST for windspeed in km/hr)
2006,01,31,10,16,12.90
2006,01,31,10,17,7.80
2006,01,31,10,18,6.40
2006,01,31,10,19,9.80
2006,01,31,10,20,7.20
2006,01,31,10,21,7.70
2006,01,31,10,22,12.50
2006,01,31,10,23,14.50
2006,01,31,10,24,13.50
2006,01,31,10,25,6.50
2006,01,31,10,26,9.20
2006,01,31,10,28,8.20
2006,01,31,10,29,11.80
2006,01,31,10,30,5.60
2006,01,31,10,31,5.10
2006,01,31,10,32,5.90
2006,01,31,10,33,12.10
2006,01,31,10,34,8.00
2006,01,31,10,35,7.70
2006,01,31,10,36,10.90
2006,01,31,10,37,8.10
2006,01,31,10,38,8.10
2006,01,31,10,39,7.20
2006,01,31,10,40,4.00
2006,01,31,10,41,7.60
2006,01,31,10,42,12.80
2006,01,31,10,43,10.40
2006,01,31,10,44,11.30
2006,01,31,10,45,9.50
2006,01,31,10,46,7.90
2006,01,31,10,47,8.10
2006,01,31,10,48,7.60
2006,01,31,10,49,9.10
2006,01,31,10,50,6.80
2006,01,31,10,51,6.20
2006,01,31,10,52,10.60
2006,01,31,10,53,9.20
2006,01,31,10,54,8.30
2006,01,31,10,55,2.30
2006,01,31,10,56,6.30
2006,01,31,10,57,6.50
2006,01,31,10,58,4.20
2006,01,31,10,59,2.20
2006,01,31,11,00,3.50
2006,01,31,11,01,9.10
2006,01,31,11,02,8.20
2006,01,31,11,03,7.20
2006,01,31,11,04,5.60
2006,01,31,11,05,6.00
2006,01,31,11,06,8.20
2006,01,31,11,07,5.30
2006,01,31,11,08,4.70
2006,01,31,11,09,6.60
2006,01,31,11,10,6.40
2006,01,31,11,11,7.30
2006,01,31,11,12,8.00
2006,01,31,11,13,7.80
2006,01,31,11,14,6.30
2006,01,31,11,15,6.60
2006,01,31,11,16,5.20
2006,01,31,11,17,4.90
2006,01,31,11,18,3.90
2006,01,31,11,19,3.80
2006,01,31,11,20,3.20
2006,01,31,11,21,3.20
2006,01,31,11,22,4.10
2006,01,31,11,23,6.10
2006,01,31,11,24,7.90
2006,01,31,11,25,14.50
2006,01,31,11,26,11.70
2006,01,31,11,27,13.30
2006,01,31,11,28,13.70
2006,01,31,11,29,14.60
2006,01,31,11,30,12.70
2006,01,31,11,31,11.40
2006,01,31,11,32,14.50
2006,01,31,11,33,14.90
2006,01,31,11,34,12.40
2006,01,31,11,35,15.50
2006,01,31,11,36,22.50
2006,01,31,11,37,18.90
2006,01,31,11,38,16.40
2006,01,31,11,39,12.40
2006,01,31,11,40,14.80
2006,01,31,11,41,10.30
2006,01,31,11,42,9.80
2006,01,31,11,43,8.10
2006,01,31,11,44,10.20
2006,01,31,11,45,10.40
2006,01,31,11,46,9.20
2006,01,31,11,47,7.10
2006,01,31,11,48,10.90
2006,01,31,11,49,12.70
2006,01,31,11,50,12.70
2006,01,31,11,51,12.30
2006,01,31,11,52,8.10
2006,01,31,11,53,7.70
2006,01,31,11,54,8.60
2006,01,31,11,55,8.00
2006,01,31,11,56,8.30
2006,01,31,11,57,8.50
2006,01,31,11,58,10.30
2006,01,31,11,59,15.00
2006,01,31,12,00,8.90
2006,01,31,12,01,10.60
2006,01,31,12,02,10.60
2006,01,31,12,03,11.20
2006,01,31,12,04,16.30
2006,01,31,12,05,17.40
2006,01,31,12,06,11.60
2006,01,31,12,07,11.30
2006,01,31,12,08,9.30
2006,01,31,12,09,13.50
2006,01,31,12,10,12.00
2006,01,31,12,11,9.10
2006,01,31,12,12,7.20
2006,01,31,12,13,7.00
2006,01,31,12,14,8.80
2006,01,31,12,15,7.80
2006,01,31,12,16,6.30
2006,01,31,12,17,7.60
2006,01,31,12,18,8.10
2006,01,31,12,19,7.00
2006,01,31,12,20,6.40
2006,01,31,12,21,9.90
2006,01,31,12,22,19.30
2006,01,31,12,23,18.10
2006,01,31,12,24,15.80
2006,01,31,12,25,13.50
2006,01,31,12,26,14.70
2006,01,31,12,27,10.70
2006,01,31,12,28,11.30
2006,01,31,12,29,10.20
2006,01,31,12,30,9.70
2006,01,31,12,31,12.80
2006,01,31,12,32,14.50
2006,01,31,12,33,15.00
2006,01,31,12,34,19.30
2006,01,31,12,35,14.70
2006,01,31,12,36,14.90
2006,01,31,12,37,18.30
2006,01,31,12,38,12.40
2006,01,31,12,39,14.20
2006,01,31,12,40,14.90
2006,01,31,12,41,16.00
2006,01,31,12,42,17.70
2006,01,31,12,43,17.50
2006,01,31,12,44,14.10
2006,01,31,12,45,12.70
2006,01,31,12,46,19.80
2006,01,31,12,47,21.80
2006,01,31,12,48,19.60
2006,01,31,12,49,18.70
2006,01,31,12,50,17.60
2006,01,31,12,51,15.30
2006,01,31,12,52,10.60
2006,01,31,12,53,22.00
2006,01,31,12,54,20.20
2006,01,31,12,55,19.20
2006,01,31,12,56,24.00
2006,01,31,12,57,21.40
2006,01,31,12,58,14.00
2006,01,31,12,59,14.20
2006,01,31,13,00,15.70
2006,01,31,13,01,11.90
2006,01,31,13,02,23.50
2006,01,31,13,03,18.50
2006,01,31,13,04,23.30
2006,01,31,13,05,24.30
2006,01,31,13,06,16.10
2006,01,31,13,07,20.20
2006,01,31,13,08,15.20
2006,01,31,13,09,27.50
2006,01,31,13,10,21.20
2006,01,31,13,11,14.90
2006,01,31,13,12,23.00
2006,01,31,13,13,15.00
2006,01,31,13,14,24.80
2006,01,31,13,15,20.40
2006,01,31,13,16,18.40
2006,01,31,13,17,24.70
2006,01,31,13,18,20.10
2006,01,31,13,19,10.60
2006,01,31,13,20,24.80
2006,01,31,13,21,25.50
2006,01,31,13,22,26.90
2006,01,31,13,23,16.90
2006,01,31,13,24,17.80
2006,01,31,13,25,24.90
2006,01,31,13,26,27.10
2006,01,31,13,27,25.20
2006,01,31,13,28,21.20
2006,01,31,13,29,24.90
2006,01,31,13,30,25.10
2006,01,31,13,31,17.90
2006,01,31,13,32,23.80
2006,01,31,13,33,29.80
2006,01,31,13,34,28.20
2006,01,31,13,35,27.70
2006,01,31,13,36,22.00
2006,01,31,13,37,15.30
2006,01,31,13,38,26.60
2006,01,31,13,39,35.40
2006,01,31,13,40,35.40
2006,01,31,13,41,28.50
2006,01,31,13,42,32.00
2006,01,31,13,43,22.90
2006,01,31,13,44,23.70
2006,01,31,13,45,31.60
2006,01,31,13,46,28.50
2006,01,31,13,47,28.10
2006,01,31,13,48,29.40
2006,01,31,13,49,29.40
2006,01,31,13,50,17.90
2006,01,31,13,51,36.40
2006,01,31,13,52,24.80
2006,01,31,13,53,26.30
2006,01,31,13,54,18.10
2006,01,31,13,55,18.70
2006,01,31,13,56,38.50
2006,01,31,13,57,32.80
2006,01,31,13,58,20.90
2006,01,31,13,59,27.70
2006,01,31,14,00,28.90
2006,01,31,14,01,33.30
2006,01,31,14,02,30.30
2006,01,31,14,03,24.40
2006,01,31,14,04,29.50
2006,01,31,14,05,24.90
2006,01,31,14,06,28.60
2006,01,31,14,07,27.80
2006,01,31,14,08,29.30
2006,01,31,14,09,28.40
2006,01,31,14,10,36.80
2006,01,31,14,11,42.00
2006,01,31,14,12,39.00
2006,01,31,14,13,37.00
2006,01,31,14,14,35.50
2006,01,31,14,15,32.10
2006,01,31,14,16,34.80
2006,01,31,14,17,40.50
2006,01,31,14,18,25.10
2006,01,31,14,19,43.20
2006,01,31,14,20,38.40
2006,01,31,14,21,45.40
2006,01,31,14,22,43.10
2006,01,31,14,23,43.60
2006,01,31,14,24,29.60
2006,01,31,14,25,25.10
2006,01,31,14,26,44.70
2006,01,31,14,27,39.30
2006,01,31,14,28,40.90
2006,01,31,14,29,37.20
2006,01,31,14,30,52.20
2006,01,31,14,31,30.30
2006,01,31,14,32,33.50
2006,01,31,14,33,35.40
2006,01,31,14,34,42.80
2006,01,31,14,35,49.90
2006,01,31,14,36,44.00
2006,01,31,14,37,43.10
2006,01,31,14,38,38.90
2006,01,31,14,39,42.30
2006,01,31,14,40,38.50
2006,01,31,14,41,32.90
2006,01,31,14,42,39.30
2006,01,31,14,43,43.00
2006,01,31,14,44,34.90
2006,01,31,14,45,32.40
2006,01,31,14,46,29.80
2006,01,31,14,47,34.60
2006,01,31,14,48,32.80
2006,01,31,14,49,44.90
2006,01,31,14,50,59.10
2006,01,31,14,51,59.50
2006,01,31,14,52,59.50
2006,01,31,14,53,57.00
2006,01,31,14,54,32.90
2006,01,31,14,55,41.40
2006,01,31,14,56,43.90
2006,01,31,14,57,41.50
2006,01,31,14,58,33.90
2006,01,31,14,59,34.90
2006,01,31,15,00,50.70
2006,01,31,15,01,42.60
2006,01,31,15,02,32.50
2006,01,31,15,03,40.20
2006,01,31,15,04,44.00
2006,01,31,15,05,47.80
2006,01,31,15,06,43.10
2006,01,31,15,07,37.60
2006,01,31,15,08,46.40
2006,01,31,15,09,39.60
2006,01,31,15,10,39.10
2006,01,31,15,11,41.20
2006,01,31,15,12,44.00
2006,01,31,15,13,43.50
2006,01,31,15,14,39.30
2006,01,31,15,15,39.90
2006,01,31,15,16,35.20
2006,01,31,15,17,37.40
2006,01,31,15,18,51.90
2006,01,31,15,19,47.60
2006,01,31,15,20,37.90
2006,01,31,15,21,34.70
2006,01,31,15,22,42.10
2006,01,31,15,23,49.90
2006,01,31,15,24,40.00
2006,01,31,15,25,38.80
2006,01,31,15,26,42.90
2006,01,31,15,27,38.10
2006,01,31,15,28,47.50
2006,01,31,15,29,42.40
2006,01,31,15,30,35.00
2006,01,31,15,31,47.90
2006,01,31,15,32,42.60
2006,01,31,15,33,41.80
2006,01,31,15,34,34.40
2006,01,31,15,35,37.70
2006,01,31,15,36,42.70
2006,01,31,15,37,44.10
2006,01,31,15,38,43.90
2006,01,31,15,39,51.80
2006,01,31,15,40,51.50
2006,01,31,15,41,51.10
2006,01,31,15,42,44.70
2006,01,31,15,43,27.30
2006,01,31,15,44,35.20
2006,01,31,15,45,34.20
2006,01,31,15,46,32.40
2006,01,31,15,47,24.80
2006,01,31,15,48,18.10
2006,01,31,15,49,25.80
2006,01,31,15,50,33.50
2006,01,31,15,51,20.90
2006,01,31,15,52,42.30
2006,01,31,15,53,49.80
2006,01,31,15,54,40.50
2006,01,31,15,55,22.30
2006,01,31,15,56,35.70
2006,01,31,15,57,39.60
2006,01,31,15,58,37.90
2006,01,31,15,59,45.60
2006,01,31,16,00,34.80
2006,01,31,16,01,35.70
2006,01,31,16,02,27.40
2006,01,31,16,03,32.70
2006,01,31,16,04,38.20
2006,01,31,16,05,34.40
2006,01,31,16,06,26.40
2006,01,31,16,07,48.80
2006,01,31,16,08,47.60
2006,01,31,16,09,38.00
2006,01,31,16,10,28.80
2006,01,31,16,11,44.30
2006,01,31,16,12,43.10
2006,01,31,16,13,33.20
2006,01,31,16,14,48.80
2006,01,31,16,15,43.10
2006,01,31,16,16,43.50
2006,01,31,16,17,41.10
2006,01,31,16,18,41.10
2006,01,31,16,19,41.50
2006,01,31,16,20,41.00
2006,01,31,16,21,26.40
2006,01,31,16,22,45.30
2006,01,31,16,23,41.80
2006,01,31,16,24,28.00
2006,01,31,16,25,50.90
2006,01,31,16,26,46.50
2006,01,31,16,27,50.40
2006,01,31,16,28,39.30
2006,01,31,16,29,42.50
2006,01,31,16,30,44.40
2006,01,31,16,31,45.40
2006,01,31,16,32,51.20
2006,01,31,16,33,42.50
2006,01,31,16,34,43.50
2006,01,31,16,35,52.60
2006,01,31,16,36,53.50
2006,01,31,16,37,41.20
2006,01,31,16,38,33.40
2006,01,31,16,39,44.90
2006,01,31,16,40,45.60
2006,01,31,16,41,43.90
2006,01,31,16,42,46.50
2006,01,31,16,43,46.70
2006,01,31,16,44,43.30
2006,01,31,16,45,59.90
2006,01,31,16,46,52.20
2006,01,31,16,47,40.30
2006,01,31,16,48,38.70
2006,01,31,16,49,53.70
2006,01,31,16,50,51.90
2006,01,31,16,51,31.40
2006,01,31,16,52,40.50
2006,01,31,16,53,45.90
2006,01,31,16,54,45.90
2006,01,31,16,55,30.20
2006,01,31,16,56,45.30
2006,01,31,16,57,41.90
2006,01,31,16,58,40.50
2006,01,31,16,59,45.60
2006,01,31,17,00,37.70
2006,01,31,17,01,38.40
2006,01,31,17,02,39.70
2006,01,31,17,03,33.50
2006,01,31,17,04,54.70
2006,01,31,17,05,50.20
2006,01,31,17,06,40.30
2006,01,31,17,07,47.70
2006,01,31,17,08,45.20
2006,01,31,17,09,36.00
2006,01,31,17,10,31.60
2006,01,31,17,11,51.30
2006,01,31,17,12,34.60
2006,01,31,17,13,35.00
2006,01,31,17,14,38.80
2006,01,31,17,15,32.50
2006,01,31,17,16,45.70
2006,01,31,17,17,29.50
2006,01,31,17,18,29.00
2006,01,31,17,19,38.30
2006,01,31,17,20,33.00
2006,01,31,17,21,37.10
2006,01,31,17,22,29.80
2006,01,31,17,23,43.60
2006,01,31,17,24,38.90
2006,01,31,17,25,46.60
2006,01,31,17,26,32.80
2006,01,31,17,27,32.40
2006,01,31,17,28,36.00
2006,01,31,17,29,27.60
2006,01,31,17,30,37.30
2006,01,31,17,31,36.10
2006,01,31,17,32,35.10
2006,01,31,17,33,43.50
2006,01,31,17,34,39.50
2006,01,31,17,35,44.90
2006,01,31,17,36,47.00
2006,01,31,17,37,32.70
2006,01,31,17,38,41.30
2006,01,31,17,39,37.00
2006,01,31,17,40,37.40
2006,01,31,17,41,40.80
2006,01,31,17,42,44.40
2006,01,31,17,43,35.00
2006,01,31,17,44,36.70
2006,01,31,17,45,37.10
2006,01,31,17,46,41.80
2006,01,31,17,47,37.30
2006,01,31,17,48,37.80
2006,01,31,17,49,37.90
2006,01,31,17,50,30.70
2006,01,31,17,51,25.10
2006,01,31,17,52,33.30
2006,01,31,17,53,30.00
2006,01,31,17,54,41.80
2006,01,31,17,55,40.40
2006,01,31,17,56,42.70
2006,01,31,17,57,39.90
2006,01,31,17,58,32.20
2006,01,31,17,59,33.80
2006,01,31,18,00,35.60
2006,01,31,18,01,34.90
2006,01,31,18,02,37.90
2006,01,31,18,03,34.80
2006,01,31,18,04,47.10
2006,01,31,18,05,30.10
2006,01,31,18,06,41.20
2006,01,31,18,07,38.90
2006,01,31,18,08,37.60
2006,01,31,18,09,28.80
2006,01,31,18,10,37.10
2006,01,31,18,11,45.90
2006,01,31,18,12,45.50
2006,01,31,18,13,36.80
2006,01,31,18,14,32.30
2006,01,31,18,15,36.40
2006,01,31,18,16,32.80
2006,01,31,18,17,33.90
2006,01,31,18,18,33.00
2006,01,31,18,19,31.10
2006,01,31,18,20,33.40
2006,01,31,18,21,31.50
2006,01,31,18,22,30.10
2006,01,31,18,23,32.40
2006,01,31,18,24,32.20
2006,01,31,18,25,41.80
2006,01,31,18,26,37.30
2006,01,31,18,27,33.20
2006,01,31,18,28,25.40
2006,01,31,18,29,32.20
2006,01,31,18,30,24.10
2006,01,31,18,31,29.80
2006,01,31,18,32,31.20
2006,01,31,18,33,44.70
2006,01,31,18,34,41.70
2006,01,31,18,35,36.30
2006,01,31,18,36,38.60
2006,01,31,18,37,40.30
2006,01,31,18,38,32.80
2006,01,31,18,39,25.20
2006,01,31,18,40,27.80
2006,01,31,18,41,37.10
2006,01,31,18,42,34.70
2006,01,31,18,43,33.90
2006,01,31,18,44,25.00
2006,01,31,18,45,31.20
2006,01,31,18,46,21.40
2006,01,31,18,47,27.30
2006,01,31,18,48,28.50
2006,01,31,18,49,33.40
2006,01,31,18,50,27.20
2006,01,31,18,51,37.70
2006,01,31,18,52,30.20
2006,01,31,18,53,26.70
2006,01,31,18,54,25.70
2006,01,31,18,55,28.20
2006,01,31,18,56,26.50
2006,01,31,18,57,28.00
2006,01,31,18,58,29.30
2006,01,31,18,59,31.30
2006,01,31,19,00,33.20
2006,01,31,19,01,28.10
2006,01,31,19,02,24.40
2006,01,31,19,03,30.70
2006,01,31,19,04,28.70
2006,01,31,19,05,27.30
2006,01,31,19,06,24.10
2006,01,31,19,07,25.60
2006,01,31,19,08,24.30
2006,01,31,19,09,25.90
2006,01,31,19,10,31.90
2006,01,31,19,11,27.40
2006,01,31,19,12,25.00
2006,01,31,19,13,20.80
2006,01,31,19,14,26.00
2006,01,31,19,15,23.50
2006,01,31,19,16,19.10
2006,01,31,19,17,15.90
2006,01,31,19,18,24.10
2006,01,31,19,19,17.20
2006,01,31,19,20,20.50
2006,01,31,19,21,21.20
2006,01,31,19,22,20.90
2006,01,31,19,23,18.60
2006,01,31,19,24,18.70
2006,01,31,19,25,15.70
2006,01,31,19,26,13.80
2006,01,31,19,27,12.30
2006,01,31,19,28,8.90
2006,01,31,19,29,18.10
2006,01,31,19,30,16.70
2006,01,31,19,31,12.30
2006,01,31,19,32,9.10
2006,01,31,19,33,13.70
2006,01,31,19,34,14.50
2006,01,31,19,35,17.40
2006,01,31,19,36,16.30
2006,01,31,19,37,17.00
2006,01,31,19,38,14.50
2006,01,31,19,39,6.90
2006,01,31,19,40,10.70
2006,01,31,19,41,10.10
2006,01,31,19,42,8.30
2006,01,31,19,43,8.10
2006,01,31,19,44,8.10
2006,01,31,19,45,16.90
2006,01,31,19,46,18.40
2006,01,31,19,47,15.20
2006,01,31,19,48,12.30
2006,01,31,19,49,12.50
2006,01,31,19,50,12.90
2006,01,31,19,51,14.90
2006,01,31,19,52,18.40
2006,01,31,19,53,22.90
2006,01,31,19,54,17.10
2006,01,31,19,55,23.30
2006,01,31,19,56,20.00
2006,01,31,19,57,17.70
2006,01,31,19,58,20.10
2006,01,31,19,59,24.20
2006,01,31,20,00,20.10
2006,01,31,20,01,21.40
2006,01,31,20,02,18.60
2006,01,31,20,03,14.10
2006,01,31,20,04,12.20
2006,01,31,20,05,20.60
2006,01,31,20,06,19.60
2006,01,31,20,07,19.10
2006,01,31,20,08,20.30
2006,01,31,20,09,16.30
2006,01,31,20,10,15.20
2006,01,31,20,11,16.00
2006,01,31,20,12,20.40
2006,01,31,20,13,17.90
2006,01,31,20,14,13.90
2006,01,31,20,15,9.60
2006,01,31,20,16,9.60
2006,01,31,20,17,10.70
2006,01,31,20,18,11.50
2006,01,31,20,19,12.00
2006,01,31,20,20,11.30
2006,01,31,20,21,14.00
2006,01,31,20,22,13.60
2006,01,31,20,23,10.40
2006,01,31,20,24,16.10
2006,01,31,20,25,7.20
2006,01,31,20,26,11.80
2006,01,31,20,27,14.80
2006,01,31,20,28,11.60
2006,01,31,20,29,12.70
2006,01,31,20,30,20.80
2006,01,31,20,31,15.70
2006,01,31,20,32,12.80
2006,01,31,20,33,16.10
2006,01,31,20,34,24.50
2006,01,31,20,35,22.00
2006,01,31,20,36,23.10
2006,01,31,20,37,20.50
2006,01,31,20,38,17.40
2006,01,31,20,39,13.60
2006,01,31,20,40,14.90
2006,01,31,20,41,19.40
2006,01,31,20,42,24.50
2006,01,31,20,43,29.00
2006,01,31,20,44,32.80
2006,01,31,20,45,30.70
2006,01,31,20,46,20.60
2006,01,31,20,47,21.90
2006,01,31,20,48,20.10
2006,01,31,20,49,27.40
2006,01,31,20,50,22.80
2006,01,31,20,51,24.20
2006,01,31,20,52,26.30
2006,01,31,20,53,19.60
2006,01,31,20,54,19.60
2006,01,31,20,55,17.00
2006,01,31,20,56,15.60
2006,01,31,20,57,17.90
2006,01,31,20,58,22.70
2006,01,31,20,59,22.00
2006,01,31,21,00,23.80
2006,01,31,21,01,24.20
2006,01,31,21,02,27.80
2006,01,31,21,03,25.80
2006,01,31,21,04,19.00
2006,01,31,21,05,23.30
2006,01,31,21,13,20.90
2006,01,31,21,14,15.60
2006,01,31,21,15,19.80
2006,01,31,21,16,14.90
2006,01,31,21,17,16.30
2006,01,31,21,18,20.40
2006,01,31,21,19,24.10
2006,01,31,21,20,17.10
2006,01,31,21,21,15.20
2006,01,31,21,22,19.40
2006,01,31,21,23,15.80
2006,01,31,21,24,15.10
2006,01,31,21,25,13.30
2006,01,31,21,26,9.70
2006,01,31,21,27,13.80
2006,01,31,21,28,22.30
2006,01,31,21,29,24.90
2006,01,31,21,30,21.60
2006,01,31,21,31,21.00
2006,01,31,21,32,13.90
2006,01,31,21,33,14.90
2006,01,31,21,34,10.50
2006,01,31,21,35,12.10
2006,01,31,21,36,16.90
2006,01,31,21,37,13.60
2006,01,31,21,38,18.20
2006,01,31,21,39,18.70
2006,01,31,21,40,23.70
2006,01,31,21,41,20.70
2006,01,31,21,42,13.00
2006,01,31,21,43,23.80
2006,01,31,21,44,24.20
2006,01,31,21,45,16.80
2006,01,31,21,46,19.20
2006,01,31,21,47,23.80
2006,01,31,21,48,30.30
2006,01,31,21,49,23.20
2006,01,31,21,50,30.70
2006,01,31,21,51,23.30
2006,01,31,21,52,23.00
2006,01,31,21,53,24.90
2006,01,31,21,54,27.90
2006,01,31,21,55,30.90
2006,01,31,21,56,22.80
2006,01,31,21,57,32.30
2006,01,31,21,58,23.80
2006,01,31,21,59,21.50
2006,01,31,22,00,27.30
2006,01,31,22,01,25.40
2006,01,31,22,02,22.00
2006,01,31,22,03,18.00
2006,01,31,22,04,21.60
2006,01,31,22,05,16.50
2006,01,31,22,06,30.70
2006,01,31,22,07,28.00
2006,01,31,22,08,24.90
2006,01,31,22,09,19.80
2006,01,31,22,10,25.30
2006,01,31,22,11,21.50
2006,01,31,22,12,17.20
2006,01,31,22,13,19.70
2006,01,31,22,14,22.90
2006,01,31,22,15,13.60
2006,01,31,22,16,17.60
2006,01,31,22,17,16.10
2006,01,31,22,18,16.10
2006,01,31,22,19,16.50
2006,01,31,22,20,16.70
2006,01,31,22,21,18.60
2006,01,31,22,22,17.40
2006,01,31,22,23,16.20
2006,01,31,22,24,20.80
2006,01,31,22,25,25.30
2006,01,31,22,26,25.30
2006,01,31,22,27,13.30
2006,01,31,22,28,19.20
2006,01,31,22,29,15.90
2006,01,31,22,30,14.20
2006,01,31,22,31,22.00
2006,01,31,22,32,14.30
2006,01,31,22,33,17.90
2006,01,31,22,34,17.90
2006,01,31,22,35,20.30
2006,01,31,22,36,14.90
2006,01,31,22,37,18.30
2006,01,31,22,38,19.50
2006,01,31,22,39,12.00
2006,01,31,22,40,9.70
2006,01,31,22,41,20.20
2006,01,31,22,42,15.90
2006,01,31,22,43,17.90
2006,01,31,22,44,18.60
2006,01,31,22,45,16.10
2006,01,31,22,46,24.70
2006,01,31,22,47,22.30
2006,01,31,22,48,17.30
2006,01,31,22,49,20.90
2006,01,31,22,50,23.00
2006,01,31,22,51,26.90
2006,01,31,22,52,26.70
2006,01,31,22,53,23.10
2006,01,31,22,54,25.90
2006,01,31,22,55,31.30
2006,01,31,22,56,20.80
2006,01,31,22,57,21.70
2006,01,31,22,58,23.30
2006,01,31,22,59,13.00
2006,01,31,23,00,14.10
2006,01,31,23,01,9.20
2006,01,31,23,02,19.80
2006,01,31,23,03,20.80
2006,01,31,23,04,28.60
2006,01,31,23,05,16.50
2006,01,31,23,06,13.80
2006,01,31,23,07,16.90
2006,01,31,23,08,18.70
2006,01,31,23,09,21.80
2006,01,31,23,10,17.50
2006,01,31,23,11,17.10
2006,01,31,23,12,16.70
2006,01,31,23,13,19.40
2006,01,31,23,14,12.60
2006,01,31,23,15,17.40
2006,01,31,23,16,23.60
2006,01,31,23,17,22.00
2006,01,31,23,18,16.80
2006,01,31,23,19,18.90
2006,01,31,23,20,21.70
2006,01,31,23,21,26.00
2006,01,31,23,22,25.60
2006,01,31,23,23,19.10
2006,01,31,23,24,24.10
2006,01,31,23,25,26.30
2006,01,31,23,26,21.60
2006,01,31,23,27,18.90
2006,01,31,23,28,19.90
2006,01,31,23,29,18.40
2006,01,31,23,30,14.50
2006,01,31,23,31,34.00
2006,01,31,23,32,29.60
2006,01,31,23,33,36.00
2006,01,31,23,34,52.50
2006,01,31,23,35,32.60
2006,01,31,23,36,26.60
2006,01,31,23,37,22.00
2006,01,31,23,38,23.40
2006,01,31,23,39,15.90
2006,01,31,23,40,25.40
2006,01,31,23,41,29.10
2006,01,31,23,42,26.60
2006,01,31,23,43,23.60
2006,01,31,23,44,27.00
2006,01,31,23,45,19.60
2006,01,31,23,46,16.20
2006,01,31,23,47,16.40
2006,01,31,23,48,16.10
2006,01,31,23,49,16.10
2006,01,31,23,50,20.80
2006,01,31,23,51,22.70
2006,01,31,23,52,14.70
2006,01,31,23,53,27.30
2006,01,31,23,54,22.80
2006,01,31,23,55,23.00
2006,01,31,23,56,17.40
2006,01,31,23,57,20.50
2006,01,31,23,58,23.00
2006,01,31,23,59,20.20
